Regional Weather Roundup
Issued by NWS

Home | Current Version | Previous Version | Graphics & Text | Print | Product List | Glossary On
Versions: 1 2 3 4 5 6 7 8 9 10 11 12 13 14 15 16 17 18 19 20 21 22 23 24 25 26 27 28 29 30 31 32 33 34 35 36 37 38 39 40 41 42 43 44 45 46 47 48 49 50
000
ASUS45 KSLC 260210
RWRUT

UTAH REGIONAL WEATHER ROUNDUP
NATIONAL WEATHER SERVICE SALT LAKE CITY UT
800 PM MDT WED MAR 25 2015

UTZ001>011-023>025-260300-

NORTHERN UTAH

CITY           SKY/WX    TMP DP  RH WIND       PRES   REMARKS
BRIGHAM CITY     N/A     46  28  48 S3        30.36R
HILL AFB         N/A     44  18  34 CALM      30.35R
LOGAN            N/A     48  23  37 S5        30.34R
OGDEN            N/A     45  19  35 CALM      30.34S
PROVO AIRPORT  PTCLDY    46  21  36 NW12      30.34S
SALT LAKE CITY   N/A     46  22  38 N6        30.35S
VERNAL           N/A     48  11  22 S3        30.24S
WENDOVER         N/A     52  16  24 CALM      30.34S
HEBER CITY       N/A     41  19  42 SW5       30.31R
WEST JORDAN    CLEAR     43  18  36 NW3       30.36S

$$

UTZ012>022-026-027-260300-

SOUTHERN/CENTRAL UTAH

CITY           SKY/WX    TMP DP  RH WIND       PRES   REMARKS
BLANDING         N/A     44  11  25 NW9       30.29S
BRYCE CANYON     N/A     38   9  30 W16G22    30.31R WCI  29
CEDAR CITY       N/A     45   9  23 N9        30.31R
DELTA            N/A     48   8  20 NW7       30.33S
HANKSVILLE       N/A     52   5  15 CALM      30.24R
MILFORD          N/A     47   9  21 N9        30.32R
MOAB/CYNLANDS    N/A     51   6  16 SE5       30.20S
PRICE            N/A     47   9  21 NW18G28   30.24R
ST GEORGE        N/A     64  10  12 NE17G25   30.21S
KANAB            N/A     54  12  19 NW9       30.25R

$$

REGIONAL REPORTS     COLORADO/ARIZONA

CITY           SKY/WX    TMP DP  RH WIND       PRES   REMARKS
CRAIG, CO      MOCLDY    34  21  59 S8        30.26S WCI  27
GRAND JUNCTION   N/A     46  13  26 NE9       30.24R
RIFLE            N/A     42  19  39 W3        30.27R
MONTROSE         N/A     45  14  28 NW9       30.26R
CORTEZ           N/A     46   6  19 N9        30.20R
PAGE, AZ         N/A     60  12  15 E5        30.17R
GRAND CANYON     N/A     50  19  29 VRB3      30.25S
KINGMAN          N/A     64  24  21 N17       30.14R
FLAGSTAFF        N/A     49  22  34 CALM      30.24R

$$

REGIONAL REPORTS    NEVADA/IDAHO/WYOMING

CITY           SKY/WX    TMP DP  RH WIND       PRES   REMARKS
LAS VEGAS, NV    N/A     74  26  16 E9        30.09S
ELY              N/A     50  18  28 N7        30.31S
ELKO           CLOUDY    54  28  36 W8        30.33R
POCATELLO, ID  MOCLDY    45  19  35 SW9       30.34R
BURLEY         CLOUDY    48  26  42 W9        30.33R
EVANSTON, WY     N/A     35  19  52 W12       30.33R WCI  27
ROCK SPRINGS     N/A     37  13  37 W18G26    30.26R WCI  27
KEMMERER         N/A     32  19  59 N5        30.32R WCI  27

$$


USA.gov is the U.S. government's official web portal to all federal, state and local government web resources and services.